Flag for Norway Weather past 2 weeks in Drammen, Norway

Now
43 °F

Scattered clouds.


Feels Like: 37 °F
Forecast: 27 / 42 °F
Wind: 9 mph from West

Location: Oslo / Fornebu

Current Time: Mar 29, 2015 at 4:48:48 PM

Latest Report: Mar 29, 2015 at 3:50 PM


Visibility: N/A

Pressure: 29.03 "Hg

Humidity: 76%

Dew point: 36 °F

Location of DrammenLocation

Historic Weather in Drammen — Graph

°F

Drammen temperature yesterday

Maximum temperature yesterday: 46 °F (at 9:50 AM)
Minimum temperature yesterday: 41 °F (at 1:50 PM)
Average temperature yesterday: 44 °F

Past Weeks' High & Low Weather Summary

 TemperatureHumidityPressure
High50 °F (Mar 17, 10:20 AM)100% (Mar 19, 6:20 AM)30.77 "Hg (Mar 19, 6:20 AM)
Low37 °F (Mar 26, 11:20 AM)39% (Mar 21, 9:50 AM)28.85 "Hg (Mar 28, 8:20 PM)
Average44 °F78%30.03 "Hg
* Reported Mar 14 2:20 PM — Mar 29 3:50 PM, Drammen, Weather by CustomWeather, © 2015

Note: Actual official high and low records may vary slightly from our data, if they occured in-between our weather recording intervals... More about our weather records

Advertising

Drammen weather history for previous 24 hours

 ConditionsComfort  
Time TempWeatherWind HumidityBarometerVisibility
3:50 PM
Sun, Mar 29
43 °FScattered clouds.9 mph76%29.03 "HgN/A
3:20 PM43 °FScattered clouds.13 mph76%29.03 "HgN/A
2:50 PM45 °FPassing clouds.12 mph66%29.06 "HgN/A
2:20 PM43 °FPassing clouds.13 mph71%29.06 "HgN/A
1:50 PM43 °FQuite cool.12 mph71%29.06 "HgN/A
1:20 PM41 °FPassing clouds.13 mph76%29.06 "HgN/A
12:50 PM43 °FBroken clouds.12 mph76%29.06 "HgN/A
12:20 PM43 °FSprinkles. Partly sunny.17 mph71%29.06 "HgN/A
11:50 AM41 °FScattered clouds.16 mph76%29.06 "HgN/A
11:20 AM41 °FSprinkles. Partly sunny.18 mph81%29.06 "HgN/A
10:50 AM43 °FScattered clouds.18 mph71%29.06 "HgN/A
10:20 AM43 °FPassing clouds.18 mph66%29.06 "HgN/A
9:50 AM41 °FPassing clouds.18 mph76%29.06 "HgN/A
9:20 AM39 °FSprinkles. Scattered clouds.21 mph75%29.06 "HgN/A
8:50 AM39 °FSprinkles. Partly sunny.25 mph75%29.06 "HgN/A
8:20 AM41 °FBroken clouds.30 mph81%29.06 "HgN/A
7:50 AM41 °FSprinkles. Passing clouds.21 mph81%29.06 "HgN/A
7:20 AM41 °FPassing clouds.26 mph81%29.03 "HgN/A
6:50 AM41 °FPartly cloudy.30 mph76%29.03 "HgN/A
6:20 AM43 °FPartly cloudy.31 mph76%29.03 "HgN/A
5:50 AM43 °FPassing clouds.33 mph81%29.03 "HgN/A
5:20 AM43 °FPassing clouds.35 mph81%29.03 "HgN/A
4:50 AM43 °FPassing clouds.35 mph81%29.00 "HgN/A
4:20 AM43 °FPassing clouds.35 mph81%29.00 "HgN/A
3:50 AM43 °FPartly cloudy.35 mph81%29.00 "HgN/A
3:20 AM43 °FPassing clouds.35 mph81%28.97 "HgN/A
1:50 AM43 °FSprinkles. Passing clouds.31 mph87%28.97 "HgN/A
1:20 AM43 °FPassing clouds.35 mph81%28.97 "HgN/A
12:50 AM43 °FPassing clouds.35 mph76%28.94 "HgN/A
12:20 AM43 °FPassing clouds.36 mph76%28.94 "HgN/A
11:50 PM
Sat, Mar 28
43 °FSprinkles. Passing clouds.35 mph87%28.91 "HgN/A
11:20 PM43 °FPassing clouds.35 mph81%28.88 "HgN/A
10:50 PM43 °FLight rain. Passing clouds.33 mph93%28.88 "HgN/A
10:20 PM45 °FLight rain. Passing clouds.28 mph93%28.88 "HgN/A
9:50 PM43 °FLight rain. Passing clouds.29 mph100%28.85 "Hg6 mi
9:20 PM46 °FLight rain. Fog.32 mph93%28.85 "Hg1 mi
8:50 PM45 °FLight rain. Fog.47 mph100%28.85 "Hg2 mi
8:20 PM45 °FLight rain. Fog.55 mph93%28.85 "Hg3 mi
7:50 PM45 °FLight rain. Low clouds.60 mph93%28.88 "HgN/A
7:20 PM45 °FLight rain. Passing clouds.66 mph93%28.88 "Hg3 mi
6:50 PM43 °FLight rain. Fog.68 mph93%28.91 "Hg3 mi
6:20 PM43 °FLight rain. Fog.68 mph93%28.94 "Hg2 mi
5:50 PM43 °FLight rain. Partly sunny.63 mph87%28.97 "Hg3 mi
5:20 PM43 °FLight rain. Fog.68 mph87%29.00 "Hg3 mi
4:50 PM41 °FLight rain. Fog.71 mph93%29.00 "Hg3 mi
4:20 PM43 °FLight rain. Fog.71 mph87%29.03 "Hg2 mi
Weather by CustomWeather, © 2015

See weather overviewHow to use our weather pages